Wetbulb
54.43 54.67 54.89 55.01 55.05 55.15 54.85 54.72 55.37 56.84 55.23 54.43 54.50 55.02 56.09 56.56 56.19 54.59 56.75 61.30 55.82 53.17 53.60 55.03 54.43 51.12 50.98 49.75 45.55 49.14 47.79 48.31 45.72 40.97 40.14 40.82 41.81 42.50 40.76 40.99 39.50 39.29 36.35 34.75 35.28 32.97 34.82 50.30 49.57 44.44 47.16 51.03 52.44 52.37
53.98 54.33 54.51 54.69 54.85 54.69 54.71 54.60 54.74 56.34 55.45 54.23 54.54 54.92 56.10 56.19 56.09 55.58 57.20 60.52 60.61 54.95 54.19 56.89 56.26 57.34 55.74 53.76 49.18 49.27 48.92 49.89 48.59 44.78 44.53 44.54 41.98 43.06 41.24 36.56 42.50 35.60 42.12 39.39 40.23 40.43 47.25 49.74 48.82 50.52 51.63 50.58 51.08 50.62
53.39 53.84 54.07 54.23 54.47 54.39 54.48 54.40 54.38 56.00 55.21 54.01 54.09 54.41 55.49 55.82 55.86 54.85 56.77 59.57 57.68 55.55 54.78 54.81 53.70 57.41 57.73 56.26 56.19 48.22 51.06 52.63 51.04 51.83 47.02 45.76 42.17 43.55 38.28 40.05 41.46 43.29 46.18 40.89 42.57 47.94 47.48 48.94 50.71 51.11 51.99 50.08 51.32 51.83
53.35 53.76 54.03 53.97 54.01 54.18 54.30 54.24 54.13 55.73 54.54 53.59 53.88 53.87 54.90 55.56 55.29 54.90 57.27 60.08 58.78 56.44 50.02 52.09 58.20 55.81 58.56 57.53 56.74 55.71 53.32 54.78 52.84 51.30 46.21 42.72 41.05 46.24 42.18 43.75 41.97 44.78 44.30 42.66 42.15 44.25 46.65 48.90 49.95 49.76 50.32 51.73 51.03 51.00
53.05 53.41 53.59 53.67 53.66 53.78 53.96 54.00 53.97 55.86 53.72 53.41 53.50 53.74 54.47 55.24 54.30 54.33 57.39 60.34 61.35 55.75 49.54 50.96 55.17 56.61 57.84 57.14 56.46 55.94 54.29 52.64 50.62 47.71 46.08 43.97 47.11 45.27 45.79 44.54 42.65 46.25 42.24 42.58 40.11 46.36 44.95 46.21 49.15 51.45 49.59 48.65 49.91 49.10
53.10 53.19 53.25 53.20 53.20 53.37 53.75 53.47 54.07 55.55 53.09 53.25 53.27 53.34 54.32 54.70 53.76 56.74 56.51 58.96 58.36 59.07 54.49 46.51 54.95 54.66 56.17 55.78 54.70 53.74 52.80 52.17 51.08 48.96 47.29 48.38 49.67 44.07 41.31 40.20 46.48 48.96 49.98 49.81 46.59 49.37 48.90 50.00 51.31 52.33 50.16 49.81 50.20 48.30
53.07 52.88 53.02 52.96 53.17 53.33 53.23 53.55 54.99 53.61 52.74 52.86 52.71 53.09 53.93 53.82 53.30 55.79 53.64 55.44 54.07 59.49 54.72 48.36 47.92 54.48 55.69 55.42 53.37 51.84 52.54 50.35 49.45 47.06 44.75 45.26 43.78 44.58 42.69 38.70 45.67 47.20 48.85 49.72 50.15 49.31 47.55 49.26 47.49 51.07 52.34 52.75 52.12 50.57
52.95 52.84 52.86 52.91 53.10 53.01 53.41 54.43 53.97 52.55 52.41 52.42 52.94 53.48 53.45 53.05 52.86 55.95 58.70 54.26 54.57 57.56 55.15 47.93 48.45 49.19 55.47 50.38 49.05 53.23 49.36 49.56 48.01 45.71 45.78 43.87 43.86 42.60 37.68 42.83 46.12 47.69 48.83 48.65 48.55 49.23 48.64 49.19 49.39 49.83 50.61 50.73 49.16 49.08
52.78 52.63 52.50 52.79 52.87 53.33 54.11 53.54 52.74 52.53 52.21 52.69 53.44 53.78 55.23 54.80 57.22 57.35 58.19 57.20 59.09 58.27 52.09 51.35 47.08 45.32 53.71 49.98 50.34 49.56 50.80 44.72 48.22 45.07 44.69 44.65 42.24 33.16 39.49 43.10 46.27 47.42 48.31 46.65 48.25 48.81 49.34 48.83 47.49 48.75 48.93 49.48 48.25 48.15
52.68 52.40 52.48 52.70 52.94 53.75 52.94 52.61 52.44 52.23 52.55 53.21 53.54 55.20 54.46 57.55 55.30 57.28 57.51 55.58 56.34 56.78 55.54 50.71 52.44 47.00 51.23 49.64 47.74 46.82 47.11 44.65 41.48 44.70 47.31 42.55 42.40 45.57 46.81 47.53 49.53 49.11 49.32 49.29 45.19 46.62 47.42 47.75 47.84 48.37 48.50 49.38 48.89 48.52
53.21 52.84 52.94 53.43 53.13 51.96 52.42 52.30 52.07 52.11 50.85 55.26 56.49 55.69 59.49 56.84 58.52 56.37 52.47 51.62 52.56 49.99 52.39 51.14 51.26 48.46 53.14 46.44 45.73 48.15 44.99 44.03 38.82 42.54 41.86 40.97 40.39 46.60 49.52 49.83 50.89 50.68 50.65 49.90 49.55 49.51 49.87 49.10 47.55 47.95 49.08 50.57 49.22 49.17
52.38 51.94 51.41 51.44 51.72 51.98 52.00 52.03 52.28 51.82 56.54 51.84 51.88 57.25 60.10 56.23 53.64 49.76 49.46 51.50 49.54 46.85 51.77 49.24 50.69 51.43 50.81 52.55 47.39 48.25 43.44 43.47 38.20 46.80 42.07 38.16 44.68 48.53 49.67 49.59 49.93 51.64 51.31 51.02 51.11 50.12 50.04 49.80 49.76 48.84 48.28 48.92 49.31 50.50
51.19 50.59 50.86 51.39 51.67 51.90 51.63 51.77 51.82 51.40 51.76 58.78 55.80 54.22 52.21 51.98 41.15 45.09 43.72 46.72 47.66 51.28 52.31 51.73 48.64 50.98 51.54 50.97 46.57 46.04 41.24 39.55 46.64 40.39 37.71 41.14 47.14 50.46 49.97 49.78 50.30 51.45 51.41 50.66 50.82 50.20 49.82 51.28 51.38 48.95 47.40 50.36 50.42 48.85
50.33 50.44 50.32 50.72 51.23 51.80 51.69 51.29 51.69 52.68 54.42 54.68 51.13 38.68 46.86 46.35 48.79 49.98 50.29 51.67 53.87 53.40 52.43 51.40 50.18 49.80 50.66 47.24 47.29 42.40 44.58 44.64 39.43 36.90 39.13 45.52 48.33 48.05 50.10 50.69 49.60 49.11 49.79 49.68 49.63 50.43 49.89 50.96 49.29 49.64 48.54 48.95 49.37 47.12
51.02 50.60 50.53 50.59 50.83 51.25 51.25 50.81 51.36 53.78 55.50 52.39 52.11 43.47 48.40 52.22 54.56 54.27 54.90 54.23 54.05 54.39 52.90 51.68 51.61 50.99 48.26 46.84 47.24 45.64 42.59 39.14 40.82 39.44 43.75 47.93 49.63 49.08 49.39 48.91 48.41 49.32 48.96 47.40 48.60 47.07 47.05 47.22 47.11 46.89 47.70 47.90 49.12 48.01
51.30 50.22 52.61 51.75 51.66 51.82 50.80 50.93 52.33 56.85 55.61 52.46 52.50 50.43 54.03 52.71 52.29 53.44 53.59 51.93 53.93 53.48 53.94 53.18 49.82 47.57 46.16 46.79 44.12 42.56 40.27 38.99 42.61 45.88 49.15 51.27 51.13 50.45 49.39 50.02 49.94 49.32 47.80 47.55 46.62 46.78 47.03 46.42 45.57 45.62 46.63 46.77 47.16 47.15
48.77 54.32 50.94 51.34 51.43 51.41 51.36 51.50 56.97 53.39 51.29 50.97 50.84 54.36 53.81 54.19 52.49 54.66 56.54 54.79 56.28 52.49 48.97 51.42 47.08 44.92 48.37 43.75 43.11 46.31 43.37 45.98 48.45 49.99 50.87 51.75 51.89 51.17 50.84 50.19 49.65 49.35 47.77 46.74 47.08 46.51 46.09 47.00 47.44 46.42 45.22 46.42 47.01 47.44
52.61 52.92 51.67 51.39 51.59 53.82 54.94 52.37 53.79 52.62 49.28 51.53 50.23 52.78 55.08 57.08 54.81 55.14 55.80 55.38 54.93 52.84 51.60 48.49 51.76 46.91 45.05 42.72 43.17 46.90 47.96 49.25 50.29 51.22 51.55 52.84 52.70 52.38 51.44 49.64 49.86 48.67 47.20 47.33 46.48 46.19 47.26 46.23 45.43 45.44 46.09 46.65 47.14 46.67
51.28 51.86 51.60 51.57 52.19 52.55 53.98 54.53 54.65 49.12 51.66 54.02 55.54 56.41 55.90 55.98 57.64 59.39 58.29 56.33 57.56 57.06 54.78 52.29 48.82 45.64 46.31 48.23 48.72 48.76 49.53 48.84 46.67 51.82 52.27 53.35 53.12 52.28 50.78 50.74 50.01 48.57 47.95 47.13 46.53 45.61 46.58 46.84 46.14 46.37 47.42 47.13 45.49 45.44
50.89 51.23 51.94 51.73 50.69 52.11 52.27 53.16 58.27 52.47 50.74 55.54 57.29 55.80 55.63 55.95 56.28 57.24 57.24 56.85 56.41 54.36 51.63 48.49 48.06 50.12 50.68 52.38 53.05 53.41 53.17 50.78 47.62 48.74 50.42 51.57 52.23 52.02 51.08 50.07 48.41 48.64 48.73 48.43 46.64 44.52 46.97 46.38 48.48 48.24 47.74 46.76 46.02 45.49
49.94 54.20 52.13 52.03 52.49 51.04 52.23 53.76 53.85 55.28 55.50 54.87 57.20 57.18 55.74 57.10 55.53 55.42 56.01 55.02 54.63 52.53 48.74 51.85 52.46 53.44 56.04 55.13 54.56 54.93 54.07 49.77 48.95 47.02 48.53 49.89 51.34 51.26 50.17 50.03 49.56 48.59 47.33 46.76 46.36 44.10 45.73 46.10 47.84 48.02 47.10 46.55 47.27 47.03
55.12 52.66 55.18 51.86 52.10 54.69 52.98 55.31 52.57 57.42 55.05 55.03 55.36 56.46 54.46 54.68 54.94 56.35 59.15 55.87 53.21 51.19 53.56 53.12 53.50 54.10 55.27 55.92 56.99 55.37 51.61 50.35 50.64 50.13 49.12 50.14 50.38 50.04 49.73 50.21 49.01 47.22 46.71 46.63 46.53 45.40 45.76 47.07 47.75 47.93 47.37 46.53 45.95 46.52
51.79 52.88 53.63 54.26 51.45 47.18 46.45 56.57 52.23 54.03 51.02 53.56 56.35 53.89 53.32 54.74 56.63 57.01 52.38 52.58 51.19 54.93 55.04 54.96 55.21 56.16 56.06 52.73 50.93 50.12 50.22 49.58 49.77 51.10 52.92 51.61 51.66 51.33 50.61 49.80 48.91 47.31 46.07 46.78 47.74 46.87 46.40 44.85 45.73 46.51 46.36 45.68 45.21 44.94
51.98 51.32 51.12 50.71 50.37 44.13 52.95 51.96 54.20 53.10 53.66 52.27 51.93 50.80 52.78 55.12 57.75 55.15 51.70 51.18 52.95 54.20 53.17 53.66 56.20 52.62 51.50 51.54 48.30 48.28 50.89 52.39 52.97 52.73 53.78 51.71 50.06 50.84 50.25 48.80 48.69 48.77 48.74 48.37 47.92 47.75 47.32 46.93 45.13 46.16 45.72 46.18 45.56 46.08
44.72 43.90 45.62 37.46 51.40 50.04 48.91 49.28 50.29 50.86 49.60 51.73 51.47 51.28 50.95 54.03 51.35 48.64 50.79 51.70 55.21 55.11 55.13 55.70 54.28 52.56 49.64 49.66 48.80 50.93 52.14 53.04 51.30 51.66 51.81 52.34 50.39 50.75 48.93 48.58 48.23 48.17 48.78 47.95 46.65 47.05 47.38 47.40 46.72 47.36 46.08 46.40 46.00 45.48
38.49 47.37 42.78 48.52 48.67 47.24 47.96 47.97 49.58 49.84 49.72 49.77 51.60 53.79 53.37 52.75 48.39 45.88 49.65 53.07 54.56 55.21 56.22 56.43 50.31 51.80 50.64 50.04 49.65 49.69 51.98 54.65 53.98 51.46 52.27 52.03 51.37 49.39 47.57 46.86 46.24 46.69 49.17 49.34 47.77 46.99 47.37 47.41 47.02 47.28 46.74 45.67 43.45 42.94
40.81 46.18 50.88 54.51 51.75 51.58 50.78 52.05 52.51 50.22 47.52 49.11 51.14 50.67 49.30 45.69 47.31 51.03 55.13 55.62 54.74 54.44 55.45 55.22 54.90 52.51 51.11 51.50 53.37 52.93 54.30 54.20 52.84 51.88 52.73 52.40 51.11 50.27 50.17 48.23 47.29 48.01 49.42 50.06 49.30 48.46 47.44 47.58 47.14 47.00 46.66 46.78 47.01 46.72
49.34 51.06 47.42 50.80 51.08 52.73 49.13 49.09 48.13 48.27 51.14 54.99 53.56 48.84 46.72 46.74 48.12 53.78 54.98 56.57 53.69 54.29 54.28 54.39 54.85 54.30 53.51 54.00 54.01 53.83 52.46 51.61 52.66 51.64 50.75 50.94 51.36 50.35 49.70 48.91 48.41 43.04 47.27 49.05 49.94 49.72 48.82 48.66 47.82 47.40 47.62 46.72 46.97 47.56
49.58 52.17 51.91 49.35 50.60 51.26 51.42 50.51 51.03 52.34 56.52 54.07 49.17 47.55 51.77 56.23 55.86 56.25 57.45 55.93 55.83 54.44 52.95 52.51 53.96 54.55 54.55 54.92 54.45 51.64 50.63 49.84 49.00 47.88 47.10 45.63 46.69 48.13 50.07 49.32 49.53 49.73 47.95 45.64 40.55 44.73 46.84 46.62 46.91 47.12 48.21 47.92 47.98 48.03
49.83 53.06 50.04 49.91 49.02 48.46 52.26 54.47 53.68 56.20 56.82 55.97 54.68 55.76 57.20 56.68 58.98 59.50 58.46 55.06 54.28 53.51 53.82 53.69 53.23 53.12 49.68 49.27 48.98 50.21 51.51 51.11 51.23 49.75 48.70 47.74 47.87 49.60 49.95 48.67 48.50 49.43 48.80 48.11 47.53 46.32 42.08 44.94 43.63 46.24 45.80 46.70 47.60 47.33
52.93 52.01 50.11 50.29 49.50 52.53 54.56 56.00 56.54 56.09 56.94 54.80 55.46 53.91 54.56 55.79 55.93 57.38 56.75 57.08 56.09 55.83 54.76 52.00 51.19 51.85 51.78 49.80 49.19 49.05 48.98 51.55 52.48 51.45 50.52 50.99 50.27 50.82 51.02 50.41 50.07 50.72 50.40 48.95 48.06 47.71 46.41 45.57 46.53 47.05 48.16 47.99 46.52 44.93
51.82 50.73 49.94 48.70 50.37 54.44 56.20 54.74 54.06 52.92 53.85 52.84 51.91 54.22 55.15 54.62 53.02 55.75 58.19 57.68 55.09 53.36 49.00 51.74 51.78 52.15 53.57 52.32 52.75 52.26 46.68 52.75 52.62 52.50 54.36 52.05 50.89 51.86 51.29 51.14 51.56 51.04 50.74 50.18 49.92 49.08 48.74 48.70 48.38 48.41 47.71 47.75 47.69 47.30
52.04 52.26 52.56 51.85 51.67 50.32 54.05 54.30 53.76 52.11 51.29 50.37 51.71 53.79 54.22 53.42 50.50 55.33 58.20 58.29 57.11 55.37 54.07 53.32 53.60 54.69 56.21 55.41 55.08 54.52 50.09 55.32 48.51 42.13 43.19 44.11 45.17 47.47 51.20 50.95 51.15 50.84 50.24 49.65 49.16 49.11 49.53 50.39 48.89 48.96 48.09 47.79 47.92 47.52
MSLP
1019.62 1019.22 1018.83 1018.43 1018.10 1017.76 1017.52 1017.20 1016.89 1016.62 1016.36 1016.13 1015.64 1015.20 1014.82 1014.29 1014.23 1014.03 1012.37 1011.10 1011.26 1011.00 1009.82 1009.34 1009.24 1009.56 1009.53 1009.60 1009.90 1009.79 1009.77 1010.05 1010.19 1010.90 1011.35 1011.96 1011.99 1012.70 1012.90 1012.77 1012.56 1012.58 1012.71 1012.91 1012.72 1012.34 1012.24 1011.14 1010.96 1011.55 1012.72 1012.75 1012.63 1013.27
1019.18 1018.78 1018.46 1018.12 1017.70 1017.50 1017.35 1017.04 1016.88 1016.18 1016.19 1015.96 1016.00 1015.26 1014.89 1014.52 1014.32 1013.99 1012.72 1011.19 1011.11 1011.38 1010.32 1009.80 1010.02 1010.15 1010.10 1009.96 1010.18 1010.24 1010.68 1011.09 1011.35 1011.61 1012.35 1012.65 1013.50 1013.62 1013.70 1013.75 1013.11 1013.42 1013.00 1013.18 1013.36 1013.26 1012.68 1012.11 1012.42 1012.50 1012.96 1013.55 1014.10 1014.12
1018.60 1018.18 1017.78 1017.41 1017.16 1016.95 1016.83 1016.56 1016.66 1016.59 1015.94 1016.22 1015.80 1015.31 1015.01 1014.62 1014.52 1014.41 1013.38 1012.23 1011.50 1011.14 1010.69 1010.41 1010.52 1010.61 1010.40 1010.23 1010.20 1010.82 1010.88 1011.26 1011.87 1011.89 1012.85 1013.67 1014.60 1015.54 1015.22 1014.31 1013.68 1013.30 1013.08 1013.50 1013.45 1014.07 1012.93 1012.76 1012.87 1012.99 1013.27 1014.08 1014.18 1014.70
1017.80 1017.48 1017.11 1016.79 1016.55 1016.38 1016.18 1016.30 1016.31 1016.20 1015.94 1015.72 1015.76 1015.32 1015.02 1014.65 1014.58 1014.41 1013.60 1012.46 1011.98 1011.64 1010.92 1011.11 1010.85 1010.89 1010.78 1010.72 1010.79 1010.92 1011.18 1011.32 1011.80 1012.23 1013.02 1013.84 1014.80 1015.38 1015.47 1015.48 1015.20 1014.43 1013.96 1014.00 1014.05 1013.72 1013.33 1013.28 1013.32 1013.37 1013.67 1014.01 1014.38 1014.88
1017.16 1016.78 1016.46 1016.24 1016.03 1016.00 1016.12 1016.06 1015.89 1016.01 1015.99 1016.10 1015.71 1015.32 1015.00 1014.68 1014.58 1014.16 1013.37 1012.40 1011.80 1012.50 1011.70 1011.44 1011.41 1011.56 1011.77 1011.82 1011.90 1012.00 1012.17 1012.36 1012.80 1013.20 1013.96 1014.91 1015.75 1016.42 1015.77 1015.94 1015.93 1015.43 1015.59 1015.64 1015.14 1014.58 1014.05 1013.86 1013.62 1013.46 1013.85 1014.33 1014.55 1014.95
1016.56 1016.26 1015.89 1015.69 1015.60 1015.59 1015.70 1015.83 1015.67 1015.62 1015.82 1015.78 1015.71 1015.33 1015.06 1014.80 1014.66 1014.08 1013.04 1012.79 1012.71 1012.78 1012.41 1011.75 1012.14 1012.24 1012.34 1012.56 1012.84 1013.16 1013.44 1013.60 1014.07 1014.91 1015.64 1016.44 1017.62 1017.75 1017.21 1016.72 1015.86 1015.67 1015.87 1015.62 1016.21 1015.29 1014.52 1014.29 1014.03 1013.82 1013.84 1014.38 1014.74 1015.09
1016.06 1015.82 1015.43 1015.30 1015.30 1015.22 1015.43 1015.48 1015.50 1015.56 1015.60 1015.66 1015.55 1015.38 1015.17 1014.94 1014.91 1014.46 1014.32 1014.13 1013.66 1013.37 1012.83 1012.48 1012.37 1012.41 1012.58 1012.95 1013.38 1014.01 1014.23 1014.69 1015.09 1015.78 1016.78 1017.46 1018.16 1018.28 1018.06 1017.28 1016.14 1015.93 1015.64 1015.71 1015.69 1015.53 1015.18 1015.02 1015.08 1014.66 1014.44 1014.33 1014.63 1015.14
1015.70 1015.50 1015.36 1015.28 1015.26 1015.28 1015.57 1015.60 1015.51 1015.69 1015.55 1015.53 1015.53 1015.32 1015.03 1014.80 1014.91 1014.37 1013.64 1013.71 1013.81 1013.43 1012.70 1012.66 1012.30 1012.37 1012.64 1013.00 1013.74 1014.26 1014.92 1015.29 1015.77 1016.31 1017.02 1017.46 1018.36 1018.61 1018.42 1017.16 1016.26 1015.77 1015.47 1015.45 1015.59 1015.61 1015.57 1015.45 1015.35 1015.24 1015.29 1014.83 1015.02 1015.30
1015.54 1015.34 1015.35 1015.31 1015.20 1015.39 1015.70 1015.55 1015.80 1015.85 1015.68 1015.62 1015.42 1015.17 1014.87 1014.54 1013.83 1013.74 1013.47 1013.46 1013.38 1013.59 1012.75 1012.24 1012.23 1012.39 1012.57 1013.23 1013.90 1014.36 1014.89 1015.40 1015.66 1015.96 1016.41 1017.18 1017.91 1018.25 1017.01 1016.33 1015.76 1015.28 1015.20 1015.20 1015.31 1015.45 1015.47 1015.60 1015.80 1015.86 1015.92 1015.92 1015.96 1015.83
1015.59 1015.35 1015.45 1015.41 1015.33 1015.54 1015.92 1015.92 1015.79 1016.00 1015.86 1015.80 1015.51 1015.00 1013.89 1013.65 1013.49 1013.44 1013.41 1013.18 1012.84 1012.31 1012.26 1011.86 1011.82 1012.05 1012.56 1012.92 1013.66 1014.56 1014.84 1015.27 1015.52 1015.55 1015.85 1016.25 1016.40 1015.78 1015.60 1015.35 1015.08 1014.91 1014.92 1015.01 1015.05 1015.26 1015.40 1015.60 1015.78 1016.00 1016.06 1016.35 1016.38 1016.57
1015.84 1015.77 1015.46 1015.54 1015.65 1015.62 1016.08 1016.14 1016.10 1016.14 1016.04 1015.71 1014.92 1014.04 1013.61 1013.41 1013.44 1013.05 1012.55 1012.26 1011.88 1011.56 1011.29 1011.45 1011.50 1011.65 1011.90 1012.53 1013.48 1014.28 1014.92 1015.16 1015.30 1015.12 1015.36 1015.43 1014.92 1014.34 1014.24 1014.31 1014.12 1014.04 1014.27 1014.43 1014.66 1014.96 1015.12 1015.42 1015.80 1016.03 1016.26 1016.56 1016.72 1016.84
1016.35 1016.35 1016.39 1016.29 1016.30 1016.21 1015.92 1016.20 1016.34 1016.33 1015.71 1016.16 1015.93 1014.19 1013.28 1013.36 1013.16 1012.57 1011.70 1011.10 1010.85 1010.62 1010.60 1010.98 1011.31 1011.61 1012.31 1012.68 1013.12 1013.93 1014.48 1014.95 1014.70 1014.32 1014.89 1014.83 1013.87 1013.51 1013.58 1013.58 1013.56 1013.80 1013.99 1014.16 1014.35 1014.65 1014.90 1015.24 1015.53 1015.86 1016.07 1016.42 1017.18 1017.31
1016.81 1016.60 1016.86 1016.54 1016.58 1016.35 1016.32 1016.29 1016.38 1016.36 1015.78 1014.69 1015.26 1014.05 1013.49 1013.23 1012.84 1011.74 1010.57 1009.65 1009.36 1009.30 1009.96 1010.52 1011.17 1011.71 1012.23 1012.64 1013.30 1013.72 1014.03 1013.89 1013.48 1013.72 1013.91 1013.86 1013.50 1013.48 1013.20 1013.32 1013.49 1013.47 1013.68 1013.99 1014.15 1014.40 1014.67 1015.00 1015.34 1015.68 1016.07 1016.31 1016.80 1017.34
1016.84 1016.63 1016.75 1016.64 1016.61 1016.45 1016.50 1016.36 1016.38 1016.10 1015.94 1014.48 1014.04 1013.92 1013.10 1011.89 1010.72 1009.63 1009.06 1008.28 1008.20 1008.48 1009.13 1010.17 1011.06 1011.64 1012.00 1012.80 1013.01 1013.20 1013.09 1013.00 1012.90 1012.91 1012.90 1013.03 1013.16 1013.47 1013.74 1013.21 1013.31 1013.48 1013.76 1013.94 1014.11 1014.16 1014.42 1014.66 1015.07 1015.37 1015.68 1015.88 1016.06 1017.24
1016.70 1016.58 1016.54 1016.30 1016.42 1016.50 1016.45 1016.44 1016.48 1016.12 1015.28 1013.68 1013.00 1012.21 1010.90 1009.93 1009.14 1008.76 1008.47 1008.08 1008.20 1008.42 1009.25 1009.91 1010.56 1011.13 1011.69 1012.19 1012.10 1012.31 1012.26 1011.93 1011.50 1011.40 1011.67 1012.15 1012.66 1013.11 1013.10 1013.11 1013.33 1013.51 1013.87 1014.12 1014.12 1014.51 1014.75 1014.98 1015.28 1015.55 1015.69 1015.74 1015.60 1016.07
1016.74 1016.67 1016.22 1016.14 1016.21 1016.38 1016.46 1016.51 1016.25 1015.52 1014.07 1012.88 1011.65 1010.45 1009.40 1009.09 1008.48 1008.04 1007.56 1007.68 1007.91 1008.49 1008.89 1009.34 1010.08 1010.47 1010.90 1011.26 1011.49 1011.23 1010.98 1011.00 1010.69 1010.75 1011.04 1011.70 1012.33 1012.64 1012.92 1013.15 1013.32 1013.63 1014.03 1014.30 1014.49 1014.76 1015.02 1015.15 1015.33 1015.48 1015.53 1015.60 1015.58 1015.65
1016.74 1016.26 1016.11 1016.01 1016.20 1016.43 1016.51 1016.55 1015.14 1014.25 1013.06 1011.43 1009.88 1009.08 1008.76 1008.30 1007.96 1007.26 1007.06 1007.00 1007.35 1008.23 1008.84 1009.15 1009.48 1009.80 1009.73 1010.10 1010.41 1010.17 1010.34 1010.39 1010.53 1010.82 1010.88 1011.74 1012.28 1012.65 1012.97 1013.18 1013.48 1013.79 1014.17 1014.52 1014.77 1014.95 1015.03 1015.09 1015.26 1015.47 1015.61 1015.67 1015.56 1015.36
1016.40 1016.25 1016.33 1016.42 1016.49 1016.22 1015.80 1015.85 1014.20 1012.61 1011.49 1010.34 1009.46 1008.55 1008.07 1007.55 1007.56 1006.99 1006.68 1006.78 1007.26 1007.67 1008.13 1008.36 1008.51 1008.89 1009.50 1010.26 1010.53 1011.43 1011.18 1011.14 1010.70 1010.70 1011.09 1011.80 1012.40 1012.76 1012.99 1013.28 1013.52 1013.82 1014.22 1014.52 1014.85 1015.05 1015.13 1015.33 1015.41 1015.52 1015.48 1015.48 1015.20 1015.11
1016.52 1016.39 1016.40 1016.51 1016.52 1016.32 1014.72 1013.85 1013.32 1011.83 1010.07 1009.19 1008.42 1007.78 1007.50 1007.02 1006.47 1006.29 1006.28 1006.46 1006.55 1006.91 1007.75 1008.15 1008.72 1009.10 1010.08 1010.90 1011.42 1011.52 1011.48 1011.46 1011.70 1011.58 1011.70 1011.76 1012.09 1012.44 1013.06 1013.28 1013.45 1013.69 1014.03 1014.50 1014.74 1014.87 1015.11 1015.38 1015.48 1015.53 1015.47 1015.60 1015.74 1015.76
1016.12 1016.16 1016.15 1016.34 1016.47 1015.71 1013.81 1012.59 1011.94 1011.10 1009.55 1008.25 1007.61 1007.25 1006.89 1006.48 1006.12 1005.98 1006.04 1006.28 1006.74 1007.39 1008.08 1008.80 1009.32 1009.65 1010.18 1010.51 1010.87 1011.06 1011.16 1011.10 1011.50 1012.50 1012.28 1012.29 1012.24 1012.32 1012.68 1012.94 1013.16 1013.45 1013.96 1014.28 1014.62 1014.90 1015.31 1015.53 1015.60 1015.72 1015.74 1015.75 1015.97 1016.02
1015.88 1015.37 1015.95 1016.16 1015.88 1015.30 1013.58 1011.68 1011.08 1010.09 1009.12 1008.13 1007.12 1006.78 1006.38 1005.82 1005.58 1005.58 1005.92 1006.69 1007.06 1007.84 1009.02 1009.62 1009.98 1009.22 1009.70 1010.13 1010.36 1010.67 1010.82 1011.11 1011.24 1012.10 1011.94 1011.65 1011.97 1012.21 1012.42 1012.59 1012.70 1012.75 1013.57 1013.92 1014.22 1014.78 1015.08 1015.49 1015.69 1015.64 1015.86 1015.98 1016.06 1015.93
1015.23 1015.46 1015.21 1015.76 1014.73 1013.09 1012.23 1010.95 1010.20 1009.36 1008.88 1007.60 1006.92 1006.48 1005.93 1005.72 1005.59 1005.41 1005.80 1006.32 1008.42 1010.38 1010.83 1010.25 1009.92 1009.63 1009.66 1009.50 1009.63 1009.91 1010.58 1011.16 1011.59 1011.71 1010.91 1010.78 1011.30 1011.69 1011.88 1011.94 1012.29 1012.37 1012.98 1013.32 1013.82 1014.30 1014.74 1014.94 1015.52 1015.53 1015.73 1015.57 1015.48 1015.54
1015.41 1015.22 1014.54 1013.66 1013.30 1012.14 1011.13 1009.91 1009.28 1008.57 1007.84 1006.62 1005.82 1005.78 1005.64 1005.60 1005.76 1005.50 1005.94 1005.90 1009.00 1010.03 1010.01 1009.76 1009.86 1009.19 1009.56 1009.53 1009.42 1010.04 1010.38 1010.84 1011.38 1010.88 1010.25 1010.12 1010.62 1010.97 1011.12 1011.32 1011.36 1011.92 1012.66 1013.20 1013.48 1013.92 1014.54 1014.78 1015.03 1015.32 1015.80 1015.72 1015.39 1015.37
1015.34 1014.69 1013.06 1012.21 1011.64 1010.93 1009.46 1008.60 1008.09 1007.38 1006.74 1006.24 1005.81 1005.66 1005.47 1005.67 1006.32 1006.37 1007.12 1008.46 1008.93 1009.38 1009.61 1009.60 1009.37 1009.44 1009.76 1009.95 1010.31 1010.34 1010.62 1010.59 1010.43 1010.15 1009.65 1009.74 1010.08 1010.25 1010.37 1010.75 1011.01 1011.56 1012.10 1012.72 1013.23 1013.75 1014.17 1014.46 1014.79 1015.20 1015.66 1016.33 1016.43 1016.14
1015.13 1014.10 1012.96 1011.68 1010.29 1009.28 1007.96 1007.16 1006.77 1006.67 1006.19 1005.94 1005.70 1005.82 1006.26 1006.61 1006.67 1007.21 1007.96 1009.10 1009.00 1009.17 1008.76 1008.15 1008.73 1008.83 1009.35 1009.86 1010.35 1010.42 1010.37 1010.04 1009.78 1009.67 1009.19 1008.97 1009.57 1009.93 1010.33 1010.74 1011.16 1011.45 1011.81 1012.38 1012.99 1013.51 1013.96 1014.17 1014.33 1014.70 1015.04 1015.24 1015.28 1015.29
1013.64 1011.96 1011.08 1009.28 1008.26 1007.50 1006.58 1005.67 1005.30 1006.03 1006.34 1006.06 1005.87 1006.39 1006.64 1006.74 1007.36 1008.49 1008.64 1009.34 1008.78 1008.12 1007.68 1007.29 1007.99 1008.31 1009.12 1009.81 1010.30 1010.23 1009.73 1009.32 1009.10 1009.18 1009.08 1008.76 1008.97 1009.36 1010.02 1010.61 1011.10 1011.50 1011.65 1012.14 1012.69 1013.19 1013.69 1013.99 1014.30 1014.54 1014.82 1014.95 1014.89 1014.90
1012.02 1010.02 1008.55 1007.83 1007.16 1006.56 1005.91 1005.35 1005.08 1005.56 1006.32 1006.33 1006.08 1007.01 1007.68 1007.87 1007.94 1009.18 1009.09 1008.70 1008.40 1007.84 1007.63 1007.53 1007.68 1008.40 1009.11 1009.54 1009.55 1009.34 1009.21 1008.96 1008.97 1008.96 1008.93 1008.93 1009.35 1009.68 1009.87 1010.19 1010.73 1011.38 1011.51 1011.96 1012.51 1012.87 1013.30 1013.61 1013.91 1014.02 1014.31 1014.32 1014.52 1014.58
1009.58 1007.95 1007.22 1006.60 1006.32 1005.94 1005.47 1005.20 1005.04 1004.78 1004.44 1004.90 1005.92 1006.84 1007.33 1008.24 1008.53 1008.71 1008.06 1007.95 1007.82 1007.86 1007.95 1008.06 1008.24 1008.48 1008.80 1008.94 1009.02 1009.00 1009.00 1009.16 1009.07 1009.03 1009.14 1009.38 1009.79 1010.37 1010.76 1011.21 1011.51 1011.68 1012.11 1012.12 1012.32 1012.68 1013.06 1013.42 1013.57 1013.74 1014.07 1014.16 1014.26 1014.38
1008.10 1007.30 1007.00 1006.46 1006.20 1005.81 1005.22 1004.79 1004.26 1003.94 1003.92 1005.06 1006.64 1007.66 1007.52 1007.61 1007.73 1007.38 1007.02 1007.22 1007.67 1007.76 1007.84 1007.92 1007.89 1008.04 1008.38 1008.66 1008.59 1008.63 1008.88 1009.04 1009.27 1009.38 1009.34 1009.62 1009.98 1010.64 1010.97 1011.50 1011.85 1012.13 1012.55 1012.94 1013.11 1013.29 1013.50 1013.67 1013.84 1013.98 1013.99 1013.96 1013.85 1013.84
1006.92 1006.61 1006.19 1006.02 1005.76 1005.46 1004.68 1004.41 1003.93 1004.15 1005.02 1005.68 1006.62 1007.23 1007.59 1007.70 1007.62 1007.35 1007.07 1006.93 1007.14 1007.41 1007.72 1007.97 1007.95 1007.77 1007.83 1008.02 1008.24 1008.51 1008.58 1008.66 1008.86 1008.88 1008.82 1008.96 1009.42 1010.11 1010.68 1011.21 1011.68 1011.92 1012.49 1012.74 1013.14 1013.55 1013.72 1013.80 1013.93 1013.96 1014.00 1013.93 1014.00 1014.03
1005.56 1005.47 1005.40 1005.23 1004.99 1004.69 1004.29 1004.09 1003.76 1004.97 1005.66 1006.48 1007.02 1007.40 1007.81 1007.69 1007.02 1006.75 1006.67 1006.69 1006.90 1007.21 1007.51 1007.69 1007.99 1007.87 1007.52 1007.45 1008.00 1008.35 1008.42 1008.49 1008.70 1009.00 1009.23 1009.21 1009.56 1010.09 1010.46 1010.85 1011.22 1011.52 1011.84 1012.20 1012.58 1013.03 1013.36 1013.48 1013.52 1013.62 1013.58 1013.63 1013.80 1013.88
1005.24 1005.26 1005.26 1005.07 1004.80 1004.31 1004.14 1004.00 1004.06 1005.36 1006.45 1007.11 1007.60 1007.44 1007.41 1007.29 1006.90 1006.81 1006.58 1006.67 1006.95 1007.38 1007.73 1007.86 1008.10 1008.00 1007.53 1007.70 1008.00 1008.33 1008.46 1008.61 1008.82 1009.06 1009.18 1009.40 1009.95 1010.19 1010.46 1010.64 1010.88 1011.22 1011.56 1011.74 1011.91 1012.28 1012.64 1012.71 1012.76 1012.95 1013.31 1013.44 1013.58 1013.75
1004.58 1004.48 1004.68 1004.90 1004.82 1004.53 1003.61 1003.60 1004.65 1006.48 1007.38 1007.70 1008.03 1007.91 1007.28 1006.66 1006.21 1006.21 1006.36 1006.68 1006.80 1006.83 1007.34 1007.78 1008.22 1008.41 1008.42 1008.30 1008.36 1008.56 1008.64 1008.81 1009.06 1009.31 1009.58 1009.76 1009.98 1010.14 1010.29 1010.43 1010.73 1011.07 1011.46 1011.68 1011.82 1011.94 1012.15 1012.36 1012.52 1012.71 1013.04 1013.32 1013.48 1013.59
Wind_Speed
16 15 15 15 14 13 12 12 12 13 10 11 13 13 14 14 15 8 5 2 3 3 6 10 13 9 7 8 4 3 3 5 2 2 2 3 3 2 4 1 1 1 3 3 2 2 3 6 8 6 2 10 16 15
18 17 16 16 14 13 12 11 11 11 8 9 13 12 12 12 14 11 3 3 1 1 1 5 9 11 9 4 2 5 2 2 2 4 3 2 4 3 0 2 4 1 4 2 4 2 3 7 7 7 8 9 7 15
18 17 16 15 14 11 11 11 10 12 7 9 11 12 12 12 12 8 4 4 4 2 4 6 6 5 6 8 7 3 3 4 3 0 1 2 4 2 3 4 4 4 5 1 5 6 4 9 7 7 8 7 8 9
17 17 16 14 12 10 10 10 8 11 6 7 9 10 11 11 13 10 3 5 2 4 2 4 8 10 13 8 7 6 4 4 2 2 1 1 3 1 4 4 3 2 3 1 0 2 3 7 7 4 6 7 8 8
17 15 13 11 10 10 9 8 6 8 6 8 9 9 9 10 13 6 4 5 4 3 1 2 9 10 14 12 15 13 12 7 4 3 4 3 4 5 4 3 2 3 2 3 2 4 4 2 3 7 7 3 5 6
15 13 11 9 9 8 7 7 7 6 5 6 8 9 8 10 11 4 2 6 7 4 3 1 3 7 6 9 8 10 7 4 4 3 3 4 2 3 2 2 5 8 6 12 6 6 4 5 7 4 8 8 5 4
12 11 9 8 6 4 4 6 5 5 4 6 8 8 7 8 4 2 2 3 8 2 2 1 2 3 7 3 3 4 6 3 3 2 3 2 3 5 3 3 2 7 6 6 7 7 5 8 4 9 5 6 10 7
10 9 7 4 1 1 3 3 4 4 3 5 6 7 8 9 8 3 2 7 3 3 1 2 3 4 6 2 3 2 2 1 2 3 3 2 3 1 2 8 9 6 5 1 1 5 6 4 7 7 13 3 4 4
8 5 3 1 1 1 2 4 3 3 4 4 7 8 3 2 2 2 1 4 3 3 2 3 4 3 3 3 2 1 2 1 3 3 3 3 3 4 8 8 7 3 3 2 5 4 5 6 3 4 7 12 5 2
6 4 2 2 3 2 4 2 1 3 3 7 3 4 2 2 1 3 1 2 3 4 4 2 1 3 4 4 3 3 1 2 1 4 4 3 5 8 9 11 6 5 5 3 2 3 3 5 3 5 6 8 7 5
6 4 4 5 7 6 3 3 3 3 3 3 3 1 2 0 2 4 3 4 4 3 2 3 2 2 4 2 3 3 2 2 2 3 3 2 3 5 11 10 8 8 7 6 6 5 5 5 1 2 3 3 6 7
10 10 10 8 6 5 5 5 4 2 3 4 4 7 2 1 3 3 3 3 5 5 4 5 3 4 2 3 1 3 2 1 5 3 3 3 2 7 6 6 6 8 7 6 7 6 5 4 5 5 5 3 4 4
8 8 5 3 4 5 5 4 4 6 10 3 3 2 2 2 2 6 6 5 4 5 4 4 4 3 2 2 2 1 3 4 2 3 4 6 6 6 6 3 6 7 7 4 4 5 3 1 4 5 3 2 4 4
3 1 4 4 3 2 4 6 8 6 3 3 3 3 5 6 6 5 6 2 2 4 7 7 4 3 3 3 3 4 4 2 4 5 4 1 7 8 5 3 5 5 5 2 5 3 2 3 2 4 4 6 5 8
6 5 6 8 7 5 4 6 7 3 3 4 4 5 8 7 4 7 4 2 3 2 8 5 3 4 4 4 4 4 4 5 5 5 4 5 9 9 5 3 4 3 4 3 5 6 6 6 6 6 5 5 3 8
8 6 4 2 5 6 4 5 3 3 4 4 6 7 4 5 6 7 5 4 5 4 1 1 3 3 3 3 4 5 4 3 4 2 4 7 7 6 5 5 6 6 3 5 6 5 5 5 5 4 5 5 5 2
1 2 2 1 2 3 2 2 4 5 5 5 6 7 9 4 5 5 1 3 5 5 4 2 4 9 5 4 6 4 0 2 2 5 8 7 6 7 6 7 6 6 7 5 4 4 3 3 4 4 5 6 6 6
1 3 2 2 4 3 3 5 4 5 7 6 7 8 6 3 6 7 3 5 4 4 4 6 5 4 4 9 1 4 4 9 2 6 6 7 7 5 5 6 6 7 6 6 4 2 2 5 4 4 4 4 4 3
5 5 5 4 1 3 3 5 4 5 6 7 8 7 6 6 4 4 1 1 4 4 1 2 4 2 2 2 3 3 4 5 3 2 5 7 7 8 7 6 6 5 7 6 4 0 3 3 3 2 2 2 2 2
11 7 5 3 1 3 5 4 4 5 5 4 6 7 6 5 5 6 5 5 5 3 3 3 1 3 5 4 1 2 5 3 5 1 4 5 5 6 7 6 5 6 5 6 4 3 6 4 3 4 4 3 3 4
4 6 6 4 4 6 5 3 4 5 5 4 6 6 6 6 6 7 1 1 2 4 3 3 5 9 4 4 5 7 7 6 5 5 5 5 6 5 4 3 4 3 8 4 4 4 5 4 1 2 2 2 2 3
2 8 2 5 4 6 6 6 5 1 4 5 7 5 5 4 8 3 4 3 7 2 3 4 6 8 5 6 5 6 9 9 4 9 5 11 7 6 6 6 7 5 7 5 5 4 5 5 6 3 2 3 3 4
4 4 4 5 6 2 7 3 4 5 4 3 3 3 3 3 2 3 3 5 3 4 5 7 9 10 4 7 13 13 10 9 7 9 6 5 9 6 5 4 5 7 6 5 5 4 5 6 4 4 5 3 2 5
1 4 4 4 7 5 5 4 3 4 5 8 9 10 5 1 1 2 3 1 2 1 4 6 3 6 7 6 4 3 3 3 4 6 6 7 5 3 4 4 5 6 6 7 6 5 4 3 5 5 6 1 8 5
1 6 3 6 5 6 6 9 11 10 11 11 7 3 3 3 0 2 0 2 4 6 7 8 10 6 7 5 2 2 6 4 3 2 6 4 9 5 5 5 6 5 4 6 5 5 5 3 3 4 2 4 1 3
4 6 7 6 7 6 5 5 5 3 5 4 3 4 2 1 3 3 2 3 3 2 3 1 6 7 6 5 3 2 5 5 5 6 3 1 2 6 7 6 6 4 4 7 5 6 6 4 4 6 4 6 6 3
5 7 8 6 6 7 7 7 6 4 7 8 1 5 4 7 5 2 3 3 3 3 6 7 6 8 7 6 4 4 6 2 4 4 3 4 9 8 5 4 8 5 4 8 6 5 5 6 6 6 4 4 1 3
9 6 11 6 5 6 8 8 9 8 4 4 3 1 7 10 5 4 5 2 5 6 6 6 5 5 4 3 4 5 3 4 2 5 5 5 8 9 8 7 7 14 8 8 6 4 3 5 4 5 5 4 4 3
7 8 9 11 9 8 6 9 10 7 1 4 5 2 3 1 5 4 3 6 6 5 4 3 1 5 6 7 5 5 5 5 4 4 7 6 5 7 7 6 3 5 7 6 10 8 8 6 5 4 5 2 3 3
12 9 9 11 9 6 6 5 10 7 10 5 5 5 3 2 2 4 4 5 5 5 4 2 2 3 6 6 6 5 3 6 5 4 2 3 7 8 8 7 5 5 7 7 6 5 4 2 2 3 3 3 2 2
6 8 10 9 10 9 9 9 9 6 3 7 7 7 3 2 1 4 4 4 5 3 3 4 1 3 6 7 8 5 4 5 7 7 5 3 8 6 5 6 7 5 6 8 8 7 6 6 5 7 4 6 7 4
5 9 10 12 11 10 10 10 7 6 4 4 2 3 2 1 1 2 2 3 3 4 2 4 2 7 8 8 6 5 3 5 5 5 3 4 7 5 4 3 4 5 4 3 4 7 8 6 4 3 5 6 4 4
8 9 10 11 9 12 13 7 6 4 5 6 4 4 4 6 3 3 5 4 3 4 6 5 6 4 3 5 5 3 2 3 8 12 10 10 8 5 4 4 5 6 6 4 4 4 5 2 4 5 7 5 4 5
Wind_Direction
307 307 304 306 308 307 306 314 319 319 317 326 332 335 347 358 352 356 277 321 46 323 33 24 46 29 6 16 24 359 341 355 301 228 324 14 52 66 50 7 37 349 147 223 316 346 162 352 30 63 109 52 85 88
311 305 304 304 302 303 302 306 311 308 304 320 326 332 341 353 352 343 286 9 343 222 340 56 62 27 351 332 344 346 85 111 359 43 9 24 13 28 11 253 188 301 132 141 114 183 111 72 89 38 72 104 110 112
310 303 299 296 295 294 288 290 302 309 298 318 319 331 335 345 355 357 300 305 333 255 31 65 54 49 4 356 0 38 24 19 66 219 243 108 44 88 357 280 358 219 55 82 71 355 148 99 67 50 66 85 82 126
308 304 299 296 293 287 274 279 291 296 288 304 311 328 330 343 347 344 316 312 294 277 179 90 56 36 31 26 23 6 340 63 58 348 336 125 80 142 161 245 326 340 74 116 187 4 38 107 135 117 74 90 94 101
303 300 298 293 287 281 276 271 273 276 273 299 308 323 325 345 336 302 259 279 31 350 11 152 90 50 48 48 42 38 35 30 14 19 23 39 66 5 338 133 260 47 143 15 216 17 111 34 349 139 126 120 142 139
302 303 300 290 283 274 258 259 268 237 261 290 305 310 327 346 338 283 240 45 12 5 318 141 116 80 76 53 45 40 24 33 37 69 13 57 61 10 348 291 47 77 122 82 299 339 26 1 349 354 149 156 150 146
304 303 305 300 287 242 248 239 246 223 254 289 301 308 330 336 305 319 16 329 331 324 263 29 87 122 110 113 88 85 34 45 69 62 69 46 24 359 345 236 21 8 4 21 2 360 0 33 345 346 4 185 173 182
316 322 327 326 263 236 237 259 196 229 276 298 306 307 307 305 286 270 176 230 270 265 135 173 192 134 155 180 101 91 98 104 34 129 166 132 158 87 248 254 266 269 309 245 356 324 289 322 353 357 353 329 122 128
344 349 356 8 108 181 257 168 203 284 308 307 296 307 291 211 271 68 211 294 232 275 307 198 169 182 111 102 103 95 157 166 158 185 171 141 129 232 223 233 270 257 258 27 38 337 330 328 205 321 358 335 350 225
11 39 73 97 101 103 151 163 53 326 316 316 284 221 200 48 163 279 150 210 209 201 229 182 144 199 116 191 117 143 174 178 214 224 122 228 219 219 210 234 245 149 138 222 206 268 272 285 256 219 200 261 289 320
27 61 78 87 110 115 104 32 8 319 319 234 240 64 81 123 250 222 249 192 204 222 197 177 200 131 14 79 121 139 190 168 249 205 204 252 255 182 196 225 175 158 169 191 200 216 221 185 201 311 316 287 271 255
49 60 59 58 75 73 63 34 6 288 13 328 296 269 162 243 268 245 224 230 190 203 198 142 150 129 76 35 64 159 153 211 253 149 206 262 255 164 157 183 167 156 175 191 193 218 195 208 218 212 173 144 164 96
58 58 46 37 52 39 20 12 340 307 302 240 218 251 83 204 29 222 211 208 174 167 145 144 150 113 106 86 58 1 196 231 195 222 219 216 178 189 170 142 120 162 188 170 228 149 167 254 129 149 116 61 114 200
7 53 296 314 325 347 328 344 342 349 275 247 173 319 223 216 225 214 267 98 117 125 144 154 123 149 157 152 211 209 234 193 243 203 213 63 121 123 264 186 162 158 89 15 345 356 321 246 301 173 197 226 191 176
333 297 289 274 252 265 291 312 324 269 267 254 211 236 219 242 267 261 288 122 118 307 131 142 145 167 158 210 196 212 211 226 228 213 175 166 153 177 174 115 105 115 116 48 57 51 32 21 23 14 10 335 284 188
334 320 230 246 280 242 247 281 244 245 246 251 229 248 263 256 265 264 230 211 144 137 27 234 174 227 180 211 207 225 227 204 259 119 109 132 138 142 136 136 119 105 77 59 51 31 35 21 356 325 329 312 319 175
6 265 150 346 215 211 190 250 220 224 250 247 234 226 256 267 261 272 255 258 134 144 175 210 230 211 209 219 221 206 147 85 48 136 135 138 144 148 157 125 132 120 93 73 66 37 349 327 352 326 328 319 303 286
227 128 148 188 196 202 218 210 263 242 239 242 262 268 285 263 284 271 271 145 134 164 213 247 233 214 201 249 306 348 1 3 337 142 129 130 129 145 132 126 135 133 128 115 102 295 28 30 1 333 288 323 6 25
350 327 189 194 255 283 250 207 227 264 246 249 259 248 246 250 262 268 339 188 159 157 162 259 256 227 58 150 152 163 219 208 240 72 158 150 154 132 143 160 156 142 141 140 140 74 114 70 350 3 325 83 102 64
287 271 202 178 228 257 245 223 204 256 274 280 285 262 259 257 236 243 213 211 178 180 212 235 304 163 166 202 157 24 268 174 98 132 167 179 166 150 174 185 170 166 139 130 115 284 108 85 31 49 38 85 125 142
148 144 137 194 210 221 286 278 224 244 271 267 284 274 257 265 247 232 103 268 160 257 82 174 240 244 185 172 185 207 225 143 126 179 239 181 172 173 182 189 189 183 144 163 169 128 116 108 148 99 49 147 228 272
70 173 244 183 260 215 236 219 255 252 236 250 285 271 252 274 274 234 172 179 57 47 309 343 283 294 273 259 220 163 128 128 125 250 258 149 164 180 199 207 194 182 147 145 128 142 137 145 154 218 266 327 4 293
248 200 237 224 224 226 255 267 239 221 252 258 230 214 227 249 290 324 37 37 140 190 222 205 271 273 195 83 103 119 133 154 190 253 241 187 155 183 197 188 129 118 132 119 114 122 128 136 168 137 95 49 3 334
89 263 258 243 195 243 241 224 243 245 245 248 263 267 276 307 23 9 35 63 248 185 268 249 238 128 98 99 101 126 183 229 228 270 247 143 141 209 114 132 118 106 126 136 146 141 135 156 145 139 115 306 293 255
172 267 191 267 258 226 245 237 239 238 256 261 275 290 26 342 297 149 284 44 212 230 244 245 177 169 154 137 127 241 255 249 245 263 304 116 161 166 122 113 115 123 133 125 120 123 130 153 163 82 81 104 26 33
208 227 189 239 212 224 232 265 239 242 10 304 315 66 12 294 145 95 41 264 261 270 304 336 127 115 109 132 194 239 245 246 240 201 209 98 67 147 145 153 145 130 128 140 134 143 149 121 145 150 212 170 234 277
244 247 218 224 273 293 289 299 313 116 153 252 44 67 9 6 8 48 283 237 279 67 46 54 70 116 142 177 216 247 255 68 40 99 99 67 75 51 60 117 121 143 157 135 146 140 151 175 193 158 192 96 65 336
239 248 246 267 299 274 263 274 282 289 291 54 80 92 163 154 198 227 215 246 85 58 70 87 110 126 140 193 196 221 118 95 139 90 76 64 82 89 80 66 79 82 69 56 85 107 163 154 191 168 164 180 203 161
235 243 260 267 265 279 275 266 269 274 283 112 110 27 313 71 182 219 115 116 133 132 155 168 137 149 168 204 212 137 148 145 125 163 171 156 146 129 124 122 140 120 100 83 63 81 73 69 46 23 13 340 218 188
239 250 251 245 256 261 255 264 300 355 43 116 139 156 81 11 286 249 228 158 165 140 92 48 309 280 157 171 156 144 183 170 173 197 198 156 135 135 130 133 154 152 147 146 153 140 125 157 169 220 212 265 48 108
235 234 238 248 250 251 265 274 274 84 105 88 91 102 113 280 82 21 38 57 91 116 135 92 119 278 269 150 130 163 208 113 97 78 53 71 117 119 135 149 162 174 166 168 163 169 170 194 204 224 224 246 151 217
228 221 235 245 256 261 264 266 294 60 48 26 342 37 58 80 166 182 161 126 124 122 90 160 83 11 37 77 96 97 60 83 136 131 132 99 115 126 133 161 143 140 149 230 195 166 186 220 168 173 135 92 93 85
210 218 220 231 237 254 254 220 89 67 26 40 342 253 225 205 136 113 115 84 12 123 135 126 109 94 34 37 49 54 266 146 126 119 109 104 121 135 165 179 147 146 158 211 213 220 167 174 176 154 136 149 185 213